McAllen, TX

12:58 AM CDT on April 24, 2018 (GMT -0500)
McAllen Miller International

Weather History for KMFE - March, 2013

Change the Weather History Date:

Thursday, March 7, 2013

  Actual Average Record
Temperature  
Mean Temperature 68 °F 69 °F  
Max Temperature 81 °F 80 °F 92 °F (1961)
Min Temperature 55 °F 58 °F 35 °F (1926)
Degree Days  
Heating Degree Days 0 2  
Month to date heating degree days 12 14  
Since 1 July heating degree days 308 547  
Cooling Degree Days 3 6  
Month to date cooling degree days 14 37  
Year to date cooling degree days 263 196  
Growing Degree Days 18 (Base 50)    
Moisture  
Dew Point 57 °F    
Average Humidity 66    
Maximum Humidity 86    
Minimum Humidity 45    
Precipitation  
Precipitation 0.00 in 0.04 in 0.43 in (1995)
Month to date precipitation T 0.27  
Year to date precipitation 0.99 2.43  
Sea Level Pressure  
Sea Level Pressure 30.12 in    
Wind  
Wind Speed 13 mph (ESE)    
Max Wind Speed 25 mph    
Max Gust Speed 31 mph    
Visibility 10 miles    
Events      
T = Trace of Precipitation, MM = Missing Value Source: NWS Daily Summary

Daily Weather History Graph

Daily Weather History Graph

Search for Another Location

Airport or City:

Astronomy

Mar. 07, 2013 Rise Set
Actual Time 6:50 AM CST 6:37 PM CST
Civil Twilight 6:27 AM CST 7:00 PM CST
Nautical Twilight 6:00 AM CST 7:27 PM CST
Astronomical Twilight 5:33 AM CST 7:54 PM CST
Moon 3:30 AM CST (3/7) 2:46 PM CST (3/7)
Length of Visible Light 12h 33m
Length of Day
11h 47m
Waning Crescent, 20% of the Moon is Illuminated
Mar 7
Waning Crescent
Mar 11
New
Mar 19
First Quarter
Mar 27
Full
Apr 2
Last Quarter

Hourly Weather History & Observations

Time (CST) Temp. Heat Index Dew Point Humidity Pressure Visibility Wind Dir Wind Speed Gust Speed Precip Events Conditions
12:53 AM 55.9 °F - 48.0 °F 75% 30.20 in 10.0 mi ESE 4.6 mph - N/A   Clear
1:53 AM 55.9 °F - 48.9 °F 77% 30.17 in 10.0 mi East 3.5 mph - N/A   Clear
2:53 AM 55.9 °F - 48.9 °F 77% 30.15 in 10.0 mi ENE 3.5 mph - N/A   Clear
3:53 AM 55.0 °F - 48.9 °F 80% 30.13 in 10.0 mi Calm Calm - N/A   Clear
4:49 AM 55.4 °F - 50.0 °F 82% 30.13 in 10.0 mi ENE 4.6 mph - N/A   Mostly Cloudy
4:53 AM 55.9 °F - 50.0 °F 80% 30.12 in 10.0 mi East 4.6 mph - N/A   Mostly Cloudy
5:13 AM 57.2 °F - 51.8 °F 82% 30.12 in 10.0 mi ENE 6.9 mph - N/A   Partly Cloudy
5:53 AM 55.9 °F - 51.1 °F 84% 30.12 in 10.0 mi East 6.9 mph - N/A   Clear
6:53 AM 59.0 °F - 53.1 °F 81% 30.14 in 10.0 mi ENE 8.1 mph - N/A   Partly Cloudy
7:53 AM 62.1 °F - 55.0 °F 78% 30.15 in 10.0 mi East 10.4 mph - N/A   Clear
8:53 AM 66.0 °F - 57.0 °F 73% 30.16 in 10.0 mi East 9.2 mph 19.6 mph N/A   Mostly Cloudy
9:27 AM 69.8 °F - 59.0 °F 68% 30.17 in 10.0 mi ESE 11.5 mph - N/A   Mostly Cloudy
9:53 AM 71.1 °F - 59.0 °F 66% 30.16 in 10.0 mi ESE 13.8 mph 21.9 mph N/A   Mostly Cloudy
10:20 AM 73.4 °F - 60.8 °F 65% 30.17 in 10.0 mi SE 15.0 mph 23.0 mph N/A   Mostly Cloudy
10:33 AM 73.4 °F - 60.8 °F 65% 30.17 in 10.0 mi ESE 13.8 mph - N/A   Mostly Cloudy
10:53 AM 75.9 °F - 57.9 °F 54% 30.15 in 10.0 mi ESE 16.1 mph 23.0 mph N/A   Scattered Clouds
11:53 AM 78.1 °F - 57.0 °F 48% 30.13 in 10.0 mi SE 13.8 mph 24.2 mph N/A   Scattered Clouds
12:53 PM 80.1 °F 80.6 °F 57.9 °F 47% 30.10 in 10.0 mi SE 17.3 mph 26.5 mph N/A   Overcast
1:53 PM 79.0 °F - 57.9 °F 48% 30.07 in 10.0 mi ESE 19.6 mph 29.9 mph N/A   Mostly Cloudy
2:53 PM 79.0 °F - 60.1 °F 52% 30.05 in 10.0 mi ESE 18.4 mph 27.6 mph N/A   Overcast
3:53 PM 78.1 °F - 60.1 °F 54% 30.05 in 10.0 mi ESE 19.6 mph - N/A   Mostly Cloudy
4:53 PM 75.9 °F - 60.1 °F 58% 30.06 in 10.0 mi SE 18.4 mph 28.8 mph N/A   Mostly Cloudy
5:53 PM 73.0 °F - 61.0 °F 66% 30.06 in 10.0 mi ESE 18.4 mph 27.6 mph N/A   Mostly Cloudy
6:53 PM 72.0 °F - 62.1 °F 71% 30.07 in 10.0 mi ESE 17.3 mph 25.3 mph N/A   Scattered Clouds
7:53 PM 71.1 °F - 62.1 °F 73% 30.08 in 10.0 mi ESE 17.3 mph 23.0 mph N/A   Partly Cloudy
8:31 PM 71.6 °F - 62.6 °F 73% 30.09 in 10.0 mi SE 17.3 mph - N/A   Mostly Cloudy
8:53 PM 71.1 °F - 63.0 °F 75% 30.10 in 10.0 mi SE 17.3 mph - N/A   Overcast
9:53 PM 70.0 °F - 63.0 °F 78% 30.10 in 10.0 mi SE 15.0 mph - N/A   Overcast
10:53 PM 69.1 °F - 63.0 °F 81% 30.11 in 10.0 mi SE 15.0 mph - N/A   Mostly Cloudy
11:53 PM 69.1 °F - 63.0 °F 81% 30.09 in 10.0 mi ESE 13.8 mph - N/A   Overcast